Weather History for Anapa, Russia

Change the Weather History Date:

Tuesday, February 12, 2013

  Actual Average Record
Temperature  
Mean Temperature 42 °F -  
Max Temperature 44 °F - - ()
Min Temperature 39 °F - - ()
Degree Days  
Heating Degree Days 24    
Moisture  
Dew Point 38 °F    
Average Humidity 91    
Maximum Humidity 100    
Minimum Humidity 73    
Precipitation  
Precipitation 0.55 in - - ()
Sea Level Pressure  
Sea Level Pressure 30.00 in    
Wind  
Wind Speed 6 mph ()    
Max Wind Speed 13 mph    
Max Gust Speed -    
Visibility 4.4 miles    
Events Rain    
T = Trace of Precipitation, MM = Missing Value Source: Averaged Metar Reports

Daily Weather History Graph

Daily Weather History Graph

Search for Another Location

Airport:

Trip Planner

Search our weather history database for the weather conditions in past years. The results will help you decide how hot, cold, wet, or windy it might be!

Date:

Astronomy

Feb. 12, 2013 Rise Set
Actual Time 8:36 AM MSK 6:54 PM MSK
Civil Twilight 8:05 AM MSK 7:24 PM MSK
Nautical Twilight 7:31 AM MSK 7:59 PM MSK
Astronomical Twilight 6:57 AM MSK 8:33 PM MSK
Moon 9:13 AM MSK (2/12) 9:42 PM MSK (2/12)
Length of Visible Light 11h 19m
Length of Day
10h 18m
Waxing Crescent, 5% of the Moon is Illuminated
Feb 12
Waxing Crescent
Feb 18
First Quarter
Feb 26
Full
Mar 5
Last Quarter
Mar 11
New

Hourly Weather History & Observations

Time (MSK) Temp. Windchill Dew Point Humidity Pressure Visibility Wind Dir Wind Speed Gust Speed Precip Events Conditions
12:00 AM 42.8 °F 35.9 °F 37.4 °F 81% 29.77 in - East 13.4 mph - N/A   Clear
1:00 AM 44 °F - 38 °F 73% 29.79 in 6 mi ENE 6.7 mph - -  
1:00 AM 41.0 °F 35.4 °F 37.4 °F 87% 29.77 in - East 8.9 mph - N/A   Clear
3:00 AM 37.4 °F 32.2 °F 35.6 °F 93% 29.80 in - ESE 6.7 mph - N/A   Clear
4:00 AM 43 °F - 39 °F 79% 29.84 in 6 mi NNE 2.2 mph - -   Overcast
4:00 AM 37.4 °F - 33.8 °F 87% 29.83 in 6.2 mi Variable 2.2 mph - N/A   Overcast
5:00 AM 42.8 °F 40.2 °F 39.2 °F 87% 29.83 in 6.2 mi ENE 4.5 mph - N/A   Overcast
6:00 AM 41.0 °F - 39.2 °F 93% 29.86 in 3.1 mi WSW 2.2 mph - N/A Rain Light Rain
7:00 AM 44 °F - 42 °F 90% 29.88 in 2 mi WNW 4.5 mph - - Rain Light Rain Showers
7:00 AM 41.0 °F 38.1 °F 39.2 °F 93% 29.86 in 3.1 mi WSW 4.5 mph - N/A Rain Light Rain
8:00 AM 41.0 °F - 39.2 °F 93% 29.89 in 1.9 mi WNW 2.2 mph - N/A Rain Light Rain
8:30 AM 39.2 °F 36.0 °F 37.4 °F 93% 29.92 in 2.2 mi WNW 4.5 mph - N/A Rain Light Rain
9:00 AM 39.2 °F - 37.4 °F 93% 29.92 in 2.2 mi NNW 2.2 mph - N/A Rain Light Rain
9:30 AM 39.2 °F 36.0 °F 37.4 °F 93% 29.95 in 2.2 mi North 4.5 mph - N/A Rain Light Rain
10:00 AM 41 °F - 40 °F 93% 29.96 in 2 mi NNW 2.2 mph - - Rain Light Rain Showers
10:00 AM 39.2 °F - 37.4 °F 93% 29.95 in 2.2 mi NNW 2.2 mph - N/A Rain Light Rain
10:30 AM 39.2 °F 36.0 °F 37.4 °F 93% 29.98 in 2.2 mi NW 4.5 mph - N/A Rain Light Rain
11:00 AM 39.2 °F 34.4 °F 37.4 °F 93% 29.98 in 2.2 mi NW 6.7 mph - N/A Rain Light Rain
11:30 AM 39.2 °F 33.1 °F 37.4 °F 93% 29.98 in 3.1 mi NW 8.9 mph - N/A Rain Light Rain
12:00 PM 39.2 °F 34.4 °F 37.4 °F 93% 30.01 in 5.0 mi NNW 6.7 mph - N/A Rain Light Rain
12:30 PM 39.2 °F 34.4 °F 39.2 °F 100% 30.01 in 3.7 mi NNW 6.7 mph - N/A Rain Light Rain
1:00 PM 41 °F - 40 °F 92% 30.04 in 2 mi North 4.5 mph - - Rain Light Rain Showers
1:00 PM 41.0 °F 36.5 °F 39.2 °F 93% 30.04 in 3.7 mi NNW 6.7 mph - N/A Rain Light Rain
1:30 PM 41.0 °F 35.4 °F 39.2 °F 93% 30.04 in 3.7 mi NNW 8.9 mph - N/A Rain Light Rain
2:00 PM 41.0 °F 35.4 °F 39.2 °F 93% 30.04 in 3.7 mi NNW 8.9 mph - N/A Rain Light Rain
2:30 PM 41.0 °F 35.4 °F 39.2 °F 93% 30.06 in 5.0 mi NNW 8.9 mph - N/A Rain Light Rain
3:00 PM 41.0 °F 35.4 °F 39.2 °F 93% 30.06 in 5.0 mi North 8.9 mph - N/A Rain Light Rain
3:30 PM 41.0 °F 36.5 °F 39.2 °F 93% 30.06 in 6.2 mi North 6.7 mph - N/A Rain Light Rain
4:00 PM 41 °F - 39 °F 90% 30.09 in 6 mi North 6.7 mph - - Rain Light Rain Showers
4:00 PM 41.0 °F 35.4 °F 39.2 °F 93% 30.09 in 6.2 mi North 8.9 mph - N/A Rain Light Rain
4:30 PM 41.0 °F 35.4 °F 39.2 °F 93% 30.09 in 6.2 mi North 8.9 mph - N/A Rain Light Rain
5:00 PM 41.0 °F 35.4 °F 39.2 °F 93% 30.09 in 6.2 mi North 8.9 mph - N/A   Overcast
5:30 PM 41.0 °F 35.4 °F 39.2 °F 93% 30.12 in 6.2 mi North 8.9 mph - N/A   Overcast
6:00 PM 41.0 °F 36.5 °F 39.2 °F 93% 30.12 in 6.2 mi North 6.7 mph - N/A   Overcast
6:30 PM 41.0 °F 36.5 °F 37.4 °F 87% 30.12 in 6.2 mi North 6.7 mph - N/A   Overcast
7:00 PM 41 °F - 39 °F 88% 30.16 in 6 mi NE 4.5 mph - -   Overcast
7:00 PM 41.0 °F 36.5 °F 37.4 °F 87% 30.15 in 6.2 mi North 6.7 mph - N/A   Overcast
8:00 PM 41.0 °F 38.1 °F 37.4 °F 87% 30.18 in 6.2 mi NNE 4.5 mph - N/A   Overcast
9:00 PM 39.2 °F - 37.4 °F 93% 30.18 in 6.2 mi NNE 2.2 mph - N/A   Overcast
10:00 PM 41 °F - 38 °F 87% 30.21 in 2 mi NE 2.2 mph - -   Mist
10:00 PM 39.2 °F 36.0 °F 37.4 °F 93% 30.18 in 6.2 mi NNW 4.5 mph - N/A   Overcast
11:00 PM 39.2 °F - 37.4 °F 93% 30.21 in 6.2 mi North 2.2 mph - N/A   Overcast